owner,sensor,date,latitude,longitude,vertical_datum,sea_water_temperature,qcFlag 
TABS,ioos:station:wmo:42050:1,2012-02-23T14:00:00Z,28.8425,-94.2433,-2.0,19.9,11111222 
TABS,ioos:station:wmo:42050:1,2012-02-23T14:30:00Z,28.8425,-94.2433,-2.0,18.52,11111222 
TABS,ioos:station:wmo:42050:1,2012-02-23T15:00:00Z,28.8425,-94.2433,-2.0,18.36,11111222 
TABS,ioos:station:wmo:42050:1,2012-02-23T15:30:00Z,28.8425,-94.2433,-2.0,18.3,11111222 
TABS,ioos:station:wmo:42050:1,2012-02-23T16:00:00Z,28.8425,-94.2433,-2.0,18.3,11111222 
TABS,ioos:station:wmo:42050:1,2012-02-23T16:30:00Z,28.8425,-94.2433,-2.0,18.3,11111222 
TABS,ioos:station:wmo:42050:1,2012-02-23T17:00:00Z,28.8425,-94.2433,-2.0,18.32,11111222 
TABS,ioos:station:wmo:42050:1,2012-02-23T17:30:00Z,28.8425,-94.2433,-2.0,18.33,11111222 
TABS,ioos:station:wmo:42050:1,2012-02-23T18:00:00Z,28.8425,-94.2433,-2.0,18.37,11111222 
TABS,ioos:station:wmo:42050:1,2012-02-23T18:30:00Z,28.8425,-94.2433,-2.0,18.43,11111222 
TABS,ioos:station:wmo:42050:1,2012-02-23T19:00:00Z,28.8425,-94.2433,-2.0,18.52,11111222 
TABS,ioos:station:wmo:42050:1,2012-02-23T19:30:00Z,28.8425,-94.2433,-2.0,18.55,11111222 
TABS,ioos:station:wmo:42050:1,2012-02-23T20:00:00Z,28.8425,-94.2433,-2.0,18.58,11111222 
TABS,ioos:station:wmo:42050:1,2012-02-23T20:30:00Z,28.8425,-94.2433,-2.0,18.62,11111222 
TABS,ioos:station:wmo:42050:1,2012-02-23T21:00:00Z,28.8425,-94.2433,-2.0,18.65,11111222 
TABS,ioos:station:wmo:42050:1,2012-02-23T21:30:00Z,28.8425,-94.2433,-2.0,18.68,11111222 
TABS,ioos:station:wmo:42050:1,2012-02-23T22:00:00Z,28.8425,-94.2433,-2.0,18.72,11111222 
TABS,ioos:station:wmo:42050:1,2012-02-23T22:30:00Z,28.8425,-94.2433,-2.0,18.74,11111222 
TABS,ioos:station:wmo:42050:1,2012-02-23T23:00:00Z,28.8425,-94.2433,-2.0,18.74,11111222 
TABS,ioos:station:wmo:42050:1,2012-02-23T23:30:00Z,28.8425,-94.2433,-2.0,18.74,11111222 
TABS,ioos:station:wmo:42050:1,2012-02-24T00:00:00Z,28.8425,-94.2433,-2.0,18.73,11111222 
TABS,ioos:station:wmo:42050:1,2012-02-24T00:30:00Z,28.8425,-94.2433,-2.0,18.72,11111222 
TABS,ioos:station:wmo:42050:1,2012-02-24T01:00:00Z,28.8425,-94.2433,-2.0,18.71,11111222 
TABS,ioos:station:wmo:42050:1,2012-02-24T01:30:00Z,28.8425,-94.2433,-2.0,18.71,11111222 
TABS,ioos:station:wmo:42050:1,2012-02-24T02:00:00Z,28.8425,-94.2433,-2.0,18.71,11111222 
TABS,ioos:station:wmo:42050:1,2012-02-24T02:30:00Z,28.8425,-94.2433,-2.0,18.72,11111222 
TABS,ioos:station:wmo:42050:1,2012-02-24T03:00:00Z,28.8425,-94.2433,-2.0,18.73,11111222 
TABS,ioos:station:wmo:42050:1,2012-02-24T03:30:00Z,28.8425,-94.2433,-2.0,18.73,11111222 
TABS,ioos:station:wmo:42050:1,2012-02-24T04:00:00Z,28.8425,-94.2433,-2.0,18.74,11111222 
TABS,ioos:station:wmo:42050:1,2012-02-24T04:30:00Z,28.8425,-94.2433,-2.0,18.74,11111222 
TABS,ioos:station:wmo:42050:1,2012-02-24T05:00:00Z,28.8425,-94.2433,-2.0,18.74,11111222 
TABS,ioos:station:wmo:42050:1,2012-02-24T05:30:00Z,28.8425,-94.2433,-2.0,18.74,11111222 
TABS,ioos:station:wmo:42050:1,2012-02-24T06:00:00Z,28.8425,-94.2433,-2.0,18.75,11111222 
TABS,ioos:station:wmo:42050:1,2012-02-24T06:30:00Z,28.8425,-94.2433,-2.0,18.76,11111222 
TABS,ioos:station:wmo:42050:1,2012-02-24T07:00:00Z,28.8425,-94.2433,-2.0,18.75,11111222 
TABS,ioos:station:wmo:42050:1,2012-02-24T07:30:00Z,28.8425,-94.2433,-2.0,18.74,11111222 
TABS,ioos:station:wmo:42050:1,2012-02-24T08:00:00Z,28.8425,-94.2433,-2.0,18.74,11111222 
TABS,ioos:station:wmo:42050:1,2012-02-24T08:30:00Z,28.8425,-94.2433,-2.0,18.73,11111222 
TABS,ioos:station:wmo:42050:1,2012-02-24T09:00:00Z,28.8425,-94.2433,-2.0,18.69,11111222 
TABS,ioos:station:wmo:42050:1,2012-02-24T09:30:00Z,28.8425,-94.2433,-2.0,18.66,11111222 
TABS,ioos:station:wmo:42050:1,2012-02-24T10:00:00Z,28.8425,-94.2433,-2.0,18.62,11111222 
TABS,ioos:station:wmo:42050:1,2012-02-24T10:30:00Z,28.8425,-94.2433,-2.0,18.59,11111222 
TABS,ioos:station:wmo:42050:1,2012-02-24T11:00:00Z,28.8425,-94.2433,-2.0,18.58,11111222 
TABS,ioos:station:wmo:42050:1,2012-02-24T11:30:00Z,28.8425,-94.2433,-2.0,18.57,11111222 
TABS,ioos:station:wmo:42050:1,2012-02-24T12:00:00Z,28.8425,-94.2433,-2.0,18.54,11111222 
TABS,ioos:station:wmo:42050:1,2012-02-24T12:30:00Z,28.8425,-94.2433,-2.0,18.52,11111222 
TABS,ioos:station:wmo:42050:1,2012-02-24T13:00:00Z,28.8425,-94.2433,-2.0,18.56,11111222 
TABS,ioos:station:wmo:42050:1,2012-02-24T13:30:00Z,28.8425,-94.2433,-2.0,18.56,11111222 
TABS,ioos:station:wmo:42050:1,2012-02-24T14:00:00Z,28.8425,-94.2433,-2.0,18.56,11111222 
TABS,ioos:station:wmo:42050:1,2012-02-24T14:30:00Z,28.8425,-94.2433,-2.0,18.53,11111222 
TABS,ioos:station:wmo:42050:1,2012-02-24T15:00:00Z,28.8425,-94.2433,-2.0,18.5,11111222 
TABS,ioos:station:wmo:42050:1,2012-02-24T15:30:00Z,28.8425,-94.2433,-2.0,18.48,11111222 
TABS,ioos:station:wmo:42050:1,2012-02-24T16:00:00Z,28.8425,-94.2433,-2.0,18.47,11111222 
TABS,ioos:station:wmo:42050:1,2012-02-24T16:30:00Z,28.8425,-94.2433,-2.0,18.41,11111222 
TABS,ioos:station:wmo:42050:1,2012-02-24T17:00:00Z,28.8425,-94.2433,-2.0,18.37,11111222 
TABS,ioos:station:wmo:42050:1,2012-02-24T17:30:00Z,28.8425,-94.2433,-2.0,18.34,11111222 
TABS,ioos:station:wmo:42050:1,2012-02-24T18:00:00Z,28.8425,-94.2433,-2.0,18.23,11111222 
TABS,ioos:station:wmo:42050:1,2012-02-24T18:30:00Z,28.8425,-94.2433,-2.0,18.17,11111222 
TABS,ioos:station:wmo:42050:1,2012-02-24T19:00:00Z,28.8425,-94.2433,-2.0,18.19,11111222 
TABS,ioos:station:wmo:42050:1,2012-02-24T19:30:00Z,28.8425,-94.2433,-2.0,18.2,11111222 
TABS,ioos:station:wmo:42050:1,2012-02-24T20:00:00Z,28.8425,-94.2433,-2.0,18.2,11111222 
TABS,ioos:station:wmo:42050:1,2012-02-24T20:30:00Z,28.8425,-94.2433,-2.0,18.21,11111222 
TABS,ioos:station:wmo:42050:1,2012-02-24T21:00:00Z,28.8425,-94.2433,-2.0,18.2,11111222 
TABS,ioos:station:wmo:42050:1,2012-02-24T21:30:00Z,28.8425,-94.2433,-2.0,18.2,11111222 
TABS,ioos:station:wmo:42050:1,2012-02-24T22:00:00Z,28.8425,-94.2433,-2.0,18.2,11111222 
TABS,ioos:station:wmo:42050:1,2012-02-24T22:30:00Z,28.8425,-94.2433,-2.0,18.19,11111222 
TABS,ioos:station:wmo:42050:1,2012-02-24T23:00:00Z,28.8425,-94.2433,-2.0,18.19,11111222 
TABS,ioos:station:wmo:42050:1,2012-02-24T23:30:00Z,28.8425,-94.2433,-2.0,18.19,11111222 
TABS,ioos:station:wmo:42050:1,2012-02-25T00:00:00Z,28.8425,-94.2433,-2.0,18.19,11111222 
TABS,ioos:station:wmo:42050:1,2012-02-25T00:30:00Z,28.8425,-94.2433,-2.0,18.19,11111222 
TABS,ioos:station:wmo:42050:1,2012-02-25T01:00:00Z,28.8425,-94.2433,-2.0,18.2,11111222 
TABS,ioos:station:wmo:42050:1,2012-02-25T01:30:00Z,28.8425,-94.2433,-2.0,18.2,11111222 
TABS,ioos:station:wmo:42050:1,2012-02-25T02:00:00Z,28.8425,-94.2433,-2.0,18.2,11111222 
TABS,ioos:station:wmo:42050:1,2012-02-25T02:30:00Z,28.8425,-94.2433,-2.0,18.17,11111222 
TABS,ioos:station:wmo:42050:1,2012-02-25T03:00:00Z,28.8425,-94.2433,-2.0,18.16,11111222 
TABS,ioos:station:wmo:42050:1,2012-02-25T03:30:00Z,28.8425,-94.2433,-2.0,18.15,11111222 
TABS,ioos:station:wmo:42050:1,2012-02-25T04:00:00Z,28.8425,-94.2433,-2.0,18.14,11111222 
TABS,ioos:station:wmo:42050:1,2012-02-25T04:30:00Z,28.8425,-94.2433,-2.0,18.12,11111222 
TABS,ioos:station:wmo:42050:1,2012-02-25T05:00:00Z,28.8425,-94.2433,-2.0,18.12,11111222 
TABS,ioos:station:wmo:42050:1,2012-02-25T05:30:00Z,28.8425,-94.2433,-2.0,18.11,11111222 
TABS,ioos:station:wmo:42050:1,2012-02-25T06:00:00Z,28.8425,-94.2433,-2.0,18.1,11111222 
TABS,ioos:station:wmo:42050:1,2012-02-25T06:30:00Z,28.8425,-94.2433,-2.0,18.09,11111222 
TABS,ioos:station:wmo:42050:1,2012-02-25T07:00:00Z,28.8425,-94.2433,-2.0,18.09,11111222 
TABS,ioos:station:wmo:42050:1,2012-02-25T07:30:00Z,28.8425,-94.2433,-2.0,18.08,11111222 
TABS,ioos:station:wmo:42050:1,2012-02-25T08:00:00Z,28.8425,-94.2433,-2.0,18.08,11111222 
TABS,ioos:station:wmo:42050:1,2012-02-25T08:30:00Z,28.8425,-94.2433,-2.0,18.07,11111222 
TABS,ioos:station:wmo:42050:1,2012-02-25T09:00:00Z,28.8425,-94.2433,-2.0,17.99,11111222 
TABS,ioos:station:wmo:42050:1,2012-02-25T09:30:00Z,28.8425,-94.2433,-2.0,17.96,11111222 
TABS,ioos:station:wmo:42050:1,2012-02-25T10:00:00Z,28.8425,-94.2433,-2.0,17.93,11111222 
TABS,ioos:station:wmo:42050:1,2012-02-25T10:30:00Z,28.8425,-94.2433,-2.0,17.92,11111222 
TABS,ioos:station:wmo:42050:1,2012-02-25T11:00:00Z,28.8425,-94.2433,-2.0,17.91,11111222 
TABS,ioos:station:wmo:42050:1,2012-02-25T11:30:00Z,28.8425,-94.2433,-2.0,17.89,11111222 
TABS,ioos:station:wmo:42050:1,2012-02-25T12:00:00Z,28.8425,-94.2433,-2.0,17.86,11111222 
TABS,ioos:station:wmo:42050:1,2012-02-25T12:30:00Z,28.8425,-94.2433,-2.0,17.83,11111222 
TABS,ioos:station:wmo:42050:1,2012-02-25T13:00:00Z,28.8425,-94.2433,-2.0,17.81,11111222 
TABS,ioos:station:wmo:42050:1,2012-02-25T13:30:00Z,28.8425,-94.2433,-2.0,17.77,11111222 
TABS,ioos:station:wmo:42050:1,2012-02-25T14:00:00Z,28.8425,-94.2433,-2.0,17.77,11111222 
TABS,ioos:station:wmo:42050:1,2012-02-25T14:30:00Z,28.8425,-94.2433,-2.0,17.79,11111222 
TABS,ioos:station:wmo:42050:1,2012-02-25T15:00:00Z,28.8425,-94.2433,-2.0,17.81,11111222 
TABS,ioos:station:wmo:42050:1,2012-02-25T15:30:00Z,28.8425,-94.2433,-2.0,17.82,11111222 
TABS,ioos:station:wmo:42050:1,2012-02-25T16:00:00Z,28.8425,-94.2433,-2.0,17.82,11111222 
TABS,ioos:station:wmo:42050:1,2012-02-25T16:30:00Z,28.8425,-94.2433,-2.0,17.82,11111222 
TABS,ioos:station:wmo:42050:1,2012-02-25T17:00:00Z,28.8425,-94.2433,-2.0,17.8,11111222 
TABS,ioos:station:wmo:42050:1,2012-02-25T17:30:00Z,28.8425,-94.2433,-2.0,17.79,11111222 
TABS,ioos:station:wmo:42050:1,2012-02-25T18:00:00Z,28.8425,-94.2433,-2.0,17.79,11111222 
TABS,ioos:station:wmo:42050:1,2012-02-25T18:30:00Z,28.8425,-94.2433,-2.0,17.77,11111222 
TABS,ioos:station:wmo:42050:1,2012-02-25T19:00:00Z,28.8425,-94.2433,-2.0,17.77,11111222 
TABS,ioos:station:wmo:42050:1,2012-02-25T19:30:00Z,28.8425,-94.2433,-2.0,17.76,11111222 
TABS,ioos:station:wmo:42050:1,2012-02-25T20:00:00Z,28.8425,-94.2433,-2.0,17.77,11111222 
TABS,ioos:station:wmo:42050:1,2012-02-25T20:30:00Z,28.8425,-94.2433,-2.0,17.78,11111222 
TABS,ioos:station:wmo:42050:1,2012-02-25T21:00:00Z,28.8425,-94.2433,-2.0,17.78,11111222 
TABS,ioos:station:wmo:42050:1,2012-02-25T21:30:00Z,28.8425,-94.2433,-2.0,17.78,11111222 
TABS,ioos:station:wmo:42050:1,2012-02-25T22:00:00Z,28.8425,-94.2433,-2.0,17.77,11111222 
TABS,ioos:station:wmo:42050:1,2012-02-25T22:30:00Z,28.8425,-94.2433,-2.0,17.77,11111222 
TABS,ioos:station:wmo:42050:1,2012-02-25T23:00:00Z,28.8425,-94.2433,-2.0,17.76,11111222 
TABS,ioos:station:wmo:42050:1,2012-02-25T23:30:00Z,28.8425,-94.2433,-2.0,17.75,11111222 
TABS,ioos:station:wmo:42050:1,2012-02-26T00:00:00Z,28.8425,-94.2433,-2.0,17.75,11111222 
TABS,ioos:station:wmo:42050:1,2012-02-26T00:30:00Z,28.8425,-94.2433,-2.0,17.73,11111222 
TABS,ioos:station:wmo:42050:1,2012-02-26T01:00:00Z,28.8425,-94.2433,-2.0,17.73,11111222 
TABS,ioos:station:wmo:42050:1,2012-02-26T01:30:00Z,28.8425,-94.2433,-2.0,17.74,11111222 
TABS,ioos:station:wmo:42050:1,2012-02-26T02:00:00Z,28.8425,-94.2433,-2.0,17.73,11111222 
TABS,ioos:station:wmo:42050:1,2012-02-26T02:30:00Z,28.8425,-94.2433,-2.0,17.73,11111222 
TABS,ioos:station:wmo:42050:1,2012-02-26T03:00:00Z,28.8425,-94.2433,-2.0,17.73,11111222 
TABS,ioos:station:wmo:42050:1,2012-02-26T03:30:00Z,28.8425,-94.2433,-2.0,17.72,11111222 
TABS,ioos:station:wmo:42050:1,2012-02-26T04:00:00Z,28.8425,-94.2433,-2.0,17.74,11111222 
TABS,ioos:station:wmo:42050:1,2012-02-26T04:30:00Z,28.8425,-94.2433,-2.0,17.72,11111222 
TABS,ioos:station:wmo:42050:1,2012-02-26T05:00:00Z,28.8425,-94.2433,-2.0,17.71,11111222 
TABS,ioos:station:wmo:42050:1,2012-02-26T05:30:00Z,28.8425,-94.2433,-2.0,17.69,11111222 
TABS,ioos:station:wmo:42050:1,2012-02-26T06:00:00Z,28.8425,-94.2433,-2.0,17.68,11111222 
TABS,ioos:station:wmo:42050:1,2012-02-26T06:30:00Z,28.8425,-94.2433,-2.0,17.66,11111222 
TABS,ioos:station:wmo:42050:1,2012-02-26T07:00:00Z,28.8425,-94.2433,-2.0,17.67,11111222 
TABS,ioos:station:wmo:42050:1,2012-02-26T07:30:00Z,28.8425,-94.2433,-2.0,17.63,11111222 
TABS,ioos:station:wmo:42050:1,2012-02-26T08:00:00Z,28.8425,-94.2433,-2.0,17.65,11111222 
TABS,ioos:station:wmo:42050:1,2012-02-26T08:30:00Z,28.8425,-94.2433,-2.0,17.67,11111222 
TABS,ioos:station:wmo:42050:1,2012-02-26T09:00:00Z,28.8425,-94.2433,-2.0,17.67,11111222 
TABS,ioos:station:wmo:42050:1,2012-02-26T09:30:00Z,28.8425,-94.2433,-2.0,17.67,11111222 
TABS,ioos:station:wmo:42050:1,2012-02-26T10:00:00Z,28.8425,-94.2433,-2.0,17.68,11111222 
TABS,ioos:station:wmo:42050:1,2012-02-26T10:30:00Z,28.8425,-94.2433,-2.0,17.68,11111222 
TABS,ioos:station:wmo:42050:1,2012-02-26T11:00:00Z,28.8425,-94.2433,-2.0,17.68,11111222 
TABS,ioos:station:wmo:42050:1,2012-02-26T11:30:00Z,28.8425,-94.2433,-2.0,17.68,11111222 
TABS,ioos:station:wmo:42050:1,2012-02-26T12:00:00Z,28.8425,-94.2433,-2.0,17.69,11111222 
TABS,ioos:station:wmo:42050:1,2012-02-26T12:30:00Z,28.8425,-94.2433,-2.0,17.68,11111222 
TABS,ioos:station:wmo:42050:1,2012-02-26T13:00:00Z,28.8425,-94.2433,-2.0,17.69,11111222 
TABS,ioos:station:wmo:42050:1,2012-02-26T13:30:00Z,28.8425,-94.2433,-2.0,17.68,11111222 
TABS,ioos:station:wmo:42050:1,2012-02-26T14:00:00Z,28.8425,-94.2433,-2.0,17.71,11111222 
TABS,ioos:station:wmo:42050:1,2012-02-26T14:30:00Z,28.8425,-94.2433,-2.0,17.69,11111222 
TABS,ioos:station:wmo:42050:1,2012-02-26T15:00:00Z,28.8425,-94.2433,-2.0,17.71,11111222 
TABS,ioos:station:wmo:42050:1,2012-02-26T15:30:00Z,28.8425,-94.2433,-2.0,17.72,11111222 
TABS,ioos:station:wmo:42050:1,2012-02-26T16:00:00Z,28.8425,-94.2433,-2.0,17.72,11111222 
TABS,ioos:station:wmo:42050:1,2012-02-26T16:30:00Z,28.8425,-94.2433,-2.0,17.73,11111222 
TABS,ioos:station:wmo:42050:1,2012-02-26T17:00:00Z,28.8425,-94.2433,-2.0,17.73,11111222 
TABS,ioos:station:wmo:42050:1,2012-02-26T17:30:00Z,28.8425,-94.2433,-2.0,17.74,11111222 
TABS,ioos:station:wmo:42050:1,2012-02-26T18:00:00Z,28.8425,-94.2433,-2.0,17.75,11111222 
TABS,ioos:station:wmo:42050:1,2012-02-26T18:30:00Z,28.8425,-94.2433,-2.0,17.76,11111222 
TABS,ioos:station:wmo:42050:1,2012-02-26T19:00:00Z,28.8425,-94.2433,-2.0,17.77,11111222 
TABS,ioos:station:wmo:42050:1,2012-02-26T19:30:00Z,28.8425,-94.2433,-2.0,17.78,11111222 
TABS,ioos:station:wmo:42050:1,2012-02-26T20:00:00Z,28.8425,-94.2433,-2.0,17.8,11111222 
TABS,ioos:station:wmo:42050:1,2012-02-26T20:30:00Z,28.8425,-94.2433,-2.0,17.8,11111222 
TABS,ioos:station:wmo:42050:1,2012-02-26T21:00:00Z,28.8425,-94.2433,-2.0,17.82,11111222 
TABS,ioos:station:wmo:42050:1,2012-02-26T21:30:00Z,28.8425,-94.2433,-2.0,17.81,11111222 
TABS,ioos:station:wmo:42050:1,2012-02-26T22:00:00Z,28.8425,-94.2433,-2.0,17.83,11111222 
TABS,ioos:station:wmo:42050:1,2012-02-26T22:30:00Z,28.8425,-94.2433,-2.0,17.92,11111222 
TABS,ioos:station:wmo:42050:1,2012-02-26T23:00:00Z,28.8425,-94.2433,-2.0,17.95,11111222 
TABS,ioos:station:wmo:42050:1,2012-02-26T23:30:00Z,28.8425,-94.2433,-2.0,17.95,11111222 
TABS,ioos:station:wmo:42050:1,2012-02-27T00:00:00Z,28.8425,-94.2433,-2.0,17.96,11111222 
TABS,ioos:station:wmo:42050:1,2012-02-27T00:30:00Z,28.8425,-94.2433,-2.0,17.95,11111222 
TABS,ioos:station:wmo:42050:1,2012-02-27T01:00:00Z,28.8425,-94.2433,-2.0,17.95,11111222 
TABS,ioos:station:wmo:42050:1,2012-02-27T01:30:00Z,28.8425,-94.2433,-2.0,17.94,11111222 
TABS,ioos:station:wmo:42050:1,2012-02-27T02:00:00Z,28.8425,-94.2433,-2.0,17.91,11111222 
TABS,ioos:station:wmo:42050:1,2012-02-27T02:30:00Z,28.8425,-94.2433,-2.0,17.87,11111222 
TABS,ioos:station:wmo:42050:1,2012-02-27T03:00:00Z,28.8425,-94.2433,-2.0,17.85,11111222 
TABS,ioos:station:wmo:42050:1,2012-02-27T03:30:00Z,28.8425,-94.2433,-2.0,17.83,11111222 
TABS,ioos:station:wmo:42050:1,2012-02-27T04:00:00Z,28.8425,-94.2433,-2.0,17.82,11111222 
TABS,ioos:station:wmo:42050:1,2012-02-27T04:30:00Z,28.8425,-94.2433,-2.0,17.81,11111222 
TABS,ioos:station:wmo:42050:1,2012-02-27T05:00:00Z,28.8425,-94.2433,-2.0,17.79,11111222 
TABS,ioos:station:wmo:42050:1,2012-02-27T05:30:00Z,28.8425,-94.2433,-2.0,17.77,11111222 
TABS,ioos:station:wmo:42050:1,2012-02-27T06:00:00Z,28.8425,-94.2433,-2.0,17.8,11111222 
TABS,ioos:station:wmo:42050:1,2012-02-27T06:30:00Z,28.8425,-94.2433,-2.0,17.8,11111222 
TABS,ioos:station:wmo:42050:1,2012-02-27T07:00:00Z,28.8425,-94.2433,-2.0,17.79,11111222 
TABS,ioos:station:wmo:42050:1,2012-02-27T07:30:00Z,28.8425,-94.2433,-2.0,17.78,11111222 
TABS,ioos:station:wmo:42050:1,2012-02-27T08:00:00Z,28.8425,-94.2433,-2.0,17.78,11111222 
TABS,ioos:station:wmo:42050:1,2012-02-27T08:30:00Z,28.8425,-94.2433,-2.0,17.77,11111222 
TABS,ioos:station:wmo:42050:1,2012-02-27T09:00:00Z,28.8425,-94.2433,-2.0,17.77,11111222 
TABS,ioos:station:wmo:42050:1,2012-02-27T09:30:00Z,28.8425,-94.2433,-2.0,17.77,11111222 
TABS,ioos:station:wmo:42050:1,2012-02-27T10:00:00Z,28.8425,-94.2433,-2.0,17.78,11111222 
TABS,ioos:station:wmo:42050:1,2012-02-27T10:30:00Z,28.8425,-94.2433,-2.0,17.78,11111222 
TABS,ioos:station:wmo:42050:1,2012-02-27T11:00:00Z,28.8425,-94.2433,-2.0,17.78,11111222 
TABS,ioos:station:wmo:42050:1,2012-02-27T11:30:00Z,28.8425,-94.2433,-2.0,17.77,11111222 
TABS,ioos:station:wmo:42050:1,2012-02-27T12:00:00Z,28.8425,-94.2433,-2.0,17.77,11111222 
TABS,ioos:station:wmo:42050:1,2012-02-27T12:30:00Z,28.8425,-94.2433,-2.0,17.77,11111222 
TABS,ioos:station:wmo:42050:1,2012-02-27T13:00:00Z,28.8425,-94.2433,-2.0,17.76,11111222 
TABS,ioos:station:wmo:42050:1,2012-02-27T13:30:00Z,28.8425,-94.2433,-2.0,17.76,11111222 
TABS,ioos:station:wmo:42050:1,2012-02-27T14:00:00Z,28.8425,-94.2433,-2.0,17.76,11111222 
TABS,ioos:station:wmo:42050:1,2012-02-27T14:30:00Z,28.8425,-94.2433,-2.0,17.75,11111222 
TABS,ioos:station:wmo:42050:1,2012-02-27T15:00:00Z,28.8425,-94.2433,-2.0,17.75,11111222 
TABS,ioos:station:wmo:42050:1,2012-02-27T15:30:00Z,28.8425,-94.2433,-2.0,17.75,11111222 
TABS,ioos:station:wmo:42050:1,2012-02-27T16:00:00Z,28.8425,-94.2433,-2.0,17.76,11111222 
TABS,ioos:station:wmo:42050:1,2012-02-27T16:30:00Z,28.8425,-94.2433,-2.0,17.75,11111222 
TABS,ioos:station:wmo:42050:1,2012-02-27T17:00:00Z,28.8425,-94.2433,-2.0,17.75,11111222 
TABS,ioos:station:wmo:42050:1,2012-02-27T17:30:00Z,28.8425,-94.2433,-2.0,17.74,11111222 
TABS,ioos:station:wmo:42050:1,2012-02-27T18:00:00Z,28.8425,-94.2433,-2.0,17.72,11111222 
TABS,ioos:station:wmo:42050:1,2012-02-27T18:30:00Z,28.8425,-94.2433,-2.0,17.71,11111222 
TABS,ioos:station:wmo:42050:1,2012-02-27T19:00:00Z,28.8425,-94.2433,-2.0,17.69,11111222 
TABS,ioos:station:wmo:42050:1,2012-02-27T19:30:00Z,28.8425,-94.2433,-2.0,17.69,11111222 
TABS,ioos:station:wmo:42050:1,2012-02-27T20:00:00Z,28.8425,-94.2433,-2.0,17.73,11111222 
TABS,ioos:station:wmo:42050:1,2012-02-27T20:30:00Z,28.8425,-94.2433,-2.0,17.75,11111222 
TABS,ioos:station:wmo:42050:1,2012-02-27T21:00:00Z,28.8425,-94.2433,-2.0,17.78,11111222 
TABS,ioos:station:wmo:42050:1,2012-02-27T21:30:00Z,28.8425,-94.2433,-2.0,17.82,11111222 
TABS,ioos:station:wmo:42050:1,2012-02-27T22:00:00Z,28.8425,-94.2433,-2.0,17.83,11111222 
TABS,ioos:station:wmo:42050:1,2012-02-27T22:30:00Z,28.8425,-94.2433,-2.0,17.83,11111222 
TABS,ioos:station:wmo:42050:1,2012-02-27T23:00:00Z,28.8425,-94.2433,-2.0,17.82,11111222 
TABS,ioos:station:wmo:42050:1,2012-02-27T23:30:00Z,28.8425,-94.2433,-2.0,17.82,11111222 
TABS,ioos:station:wmo:42050:1,2012-02-28T00:00:00Z,28.8425,-94.2433,-2.0,17.83,11111222 
TABS,ioos:station:wmo:42050:1,2012-02-28T00:30:00Z,28.8425,-94.2433,-2.0,17.84,11111222 
TABS,ioos:station:wmo:42050:1,2012-02-28T01:00:00Z,28.8425,-94.2433,-2.0,17.87,11111222 
TABS,ioos:station:wmo:42050:1,2012-02-28T01:30:00Z,28.8425,-94.2433,-2.0,17.92,11111222 
TABS,ioos:station:wmo:42050:1,2012-02-28T02:00:00Z,28.8425,-94.2433,-2.0,17.93,11111222 
TABS,ioos:station:wmo:42050:1,2012-02-28T02:30:00Z,28.8425,-94.2433,-2.0,17.92,11111222 
TABS,ioos:station:wmo:42050:1,2012-02-28T03:00:00Z,28.8425,-94.2433,-2.0,17.95,11111222 
TABS,ioos:station:wmo:42050:1,2012-02-28T03:30:00Z,28.8425,-94.2433,-2.0,17.99,11111222 
TABS,ioos:station:wmo:42050:1,2012-02-28T04:00:00Z,28.8425,-94.2433,-2.0,18.01,11111222 
TABS,ioos:station:wmo:42050:1,2012-02-28T04:30:00Z,28.8425,-94.2433,-2.0,18.01,11111222 
TABS,ioos:station:wmo:42050:1,2012-02-28T05:00:00Z,28.8425,-94.2433,-2.0,18.02,11111222 
TABS,ioos:station:wmo:42050:1,2012-02-28T05:30:00Z,28.8425,-94.2433,-2.0,18.02,11111222 
TABS,ioos:station:wmo:42050:1,2012-02-28T06:00:00Z,28.8425,-94.2433,-2.0,18.01,11111222 
TABS,ioos:station:wmo:42050:1,2012-02-28T06:30:00Z,28.8425,-94.2433,-2.0,18.07,11111222 
TABS,ioos:station:wmo:42050:1,2012-02-28T07:00:00Z,28.8425,-94.2433,-2.0,18.12,11111222 
TABS,ioos:station:wmo:42050:1,2012-02-28T07:30:00Z,28.8425,-94.2433,-2.0,18.15,11111222 
TABS,ioos:station:wmo:42050:1,2012-02-28T08:00:00Z,28.8425,-94.2433,-2.0,18.16,11111222 
TABS,ioos:station:wmo:42050:1,2012-02-28T08:30:00Z,28.8425,-94.2433,-2.0,18.19,11111222 
TABS,ioos:station:wmo:42050:1,2012-02-28T09:00:00Z,28.8425,-94.2433,-2.0,18.17,11111222 
TABS,ioos:station:wmo:42050:1,2012-02-28T09:30:00Z,28.8425,-94.2433,-2.0,18.16,11111222 
TABS,ioos:station:wmo:42050:1,2012-02-28T10:00:00Z,28.8425,-94.2433,-2.0,18.14,11111222 
TABS,ioos:station:wmo:42050:1,2012-02-28T10:30:00Z,28.8425,-94.2433,-2.0,18.16,11111222 
TABS,ioos:station:wmo:42050:1,2012-02-28T11:00:00Z,28.8425,-94.2433,-2.0,18.17,11111222 
TABS,ioos:station:wmo:42050:1,2012-02-28T11:30:00Z,28.8425,-94.2433,-2.0,18.17,11111222 
TABS,ioos:station:wmo:42050:1,2012-02-28T12:00:00Z,28.8425,-94.2433,-2.0,18.17,11111222 
TABS,ioos:station:wmo:42050:1,2012-02-28T12:30:00Z,28.8425,-94.2433,-2.0,18.17,11111222 
TABS,ioos:station:wmo:42050:1,2012-02-28T13:00:00Z,28.8425,-94.2433,-2.0,18.17,11111222 
TABS,ioos:station:wmo:42050:1,2012-02-28T13:30:00Z,28.8425,-94.2433,-2.0,18.17,11111222 
TABS,ioos:station:wmo:42050:1,2012-02-28T14:00:00Z,28.8425,-94.2433,-2.0,18.17,11111222 
TABS,ioos:station:wmo:42050:1,2012-02-28T14:30:00Z,28.8425,-94.2433,-2.0,18.17,11111222 
TABS,ioos:station:wmo:42050:1,2012-02-28T15:00:00Z,28.8425,-94.2433,-2.0,18.21,11111222 
TABS,ioos:station:wmo:42050:1,2012-02-28T15:30:00Z,28.8425,-94.2433,-2.0,18.21,11111222 
TABS,ioos:station:wmo:42050:1,2012-02-28T16:00:00Z,28.8425,-94.2433,-2.0,18.22,11111222 
TABS,ioos:station:wmo:42050:1,2012-02-28T16:30:00Z,28.8425,-94.2433,-2.0,18.23,11111222 
TABS,ioos:station:wmo:42050:1,2012-02-28T17:00:00Z,28.8425,-94.2433,-2.0,18.25,11111222 
TABS,ioos:station:wmo:42050:1,2012-02-28T17:30:00Z,28.8425,-94.2433,-2.0,18.3,11111222 
TABS,ioos:station:wmo:42050:1,2012-02-28T18:00:00Z,28.8425,-94.2433,-2.0,18.4,11111222 
TABS,ioos:station:wmo:42050:1,2012-02-28T18:30:00Z,28.8425,-94.2433,-2.0,18.4,11111222 
TABS,ioos:station:wmo:42050:1,2012-02-28T19:00:00Z,28.8425,-94.2433,-2.0,18.41,11111222 
TABS,ioos:station:wmo:42050:1,2012-02-28T19:30:00Z,28.8425,-94.2433,-2.0,18.45,11111222 
TABS,ioos:station:wmo:42050:1,2012-02-28T20:00:00Z,28.8425,-94.2433,-2.0,18.49,11111222 
TABS,ioos:station:wmo:42050:1,2012-02-28T20:30:00Z,28.8425,-94.2433,-2.0,18.49,11111222 
TABS,ioos:station:wmo:42050:1,2012-02-28T21:00:00Z,28.8425,-94.2433,-2.0,18.53,11111222 
TABS,ioos:station:wmo:42050:1,2012-02-28T21:30:00Z,28.8425,-94.2433,-2.0,18.52,11111222 
TABS,ioos:station:wmo:42050:1,2012-02-28T22:00:00Z,28.8425,-94.2433,-2.0,18.53,11111222 
TABS,ioos:station:wmo:42050:1,2012-02-28T22:30:00Z,28.8425,-94.2433,-2.0,18.58,11111222 
TABS,ioos:station:wmo:42050:1,2012-02-28T23:00:00Z,28.8425,-94.2433,-2.0,18.55,11111222 
TABS,ioos:station:wmo:42050:1,2012-02-28T23:30:00Z,28.8425,-94.2433,-2.0,18.5,11111222 
TABS,ioos:station:wmo:42050:1,2012-02-29T00:00:00Z,28.8425,-94.2433,-2.0,18.42,11111222 
TABS,ioos:station:wmo:42050:1,2012-02-29T00:30:00Z,28.8425,-94.2433,-2.0,18.39,11111222 
TABS,ioos:station:wmo:42050:1,2012-02-29T01:00:00Z,28.8425,-94.2433,-2.0,18.36,11111222 
TABS,ioos:station:wmo:42050:1,2012-02-29T01:30:00Z,28.8425,-94.2433,-2.0,18.33,11111222 
TABS,ioos:station:wmo:42050:1,2012-02-29T02:00:00Z,28.8425,-94.2433,-2.0,18.3,11111222 
TABS,ioos:station:wmo:42050:1,2012-02-29T02:30:00Z,28.8425,-94.2433,-2.0,18.28,11111222 
TABS,ioos:station:wmo:42050:1,2012-02-29T03:00:00Z,28.8425,-94.2433,-2.0,18.25,11111222 
TABS,ioos:station:wmo:42050:1,2012-02-29T03:30:00Z,28.8425,-94.2433,-2.0,18.24,11111222 
TABS,ioos:station:wmo:42050:1,2012-02-29T04:00:00Z,28.8425,-94.2433,-2.0,18.24,11111222 